User: anonymous   Login
Location: Clatteringshaws Loch
(55.0508°N, 4.2860°W)
Time: 09:25:19
(UTC+00:00)
Language:

ALOS - Orbit

View from above orbital plane
View from above orbital plane
View from above satellite
View from above satellite

Ground track
Ground track

The orbit data is extracted from the following two-line orbital elements,

1 28931U 06002A   17347.06194504  .00000131  00000-0  34551-4 0  9999
2 28931  97.8301   5.3451 0002458  91.1668 268.9816 14.62434763633609
Epoch (UTC): 13 December 2017 01:29:12
Eccentricity: 0.0002458
inclination: 97.8301°
perigee height: 683 km
apogee height: 687 km
right ascension of ascending node: 5.3451°
argument of perigee: 91.1668°
revolutions per day: 14.62434763
mean anomaly at epoch: 268.9816°
orbit number at epoch: 63360

The dashed part of the orbit path shows where the satellite is in the earth's shadow,  

DLR